LROP Weather Reports


time (UTC)temp
F
wind
direction
speed
knots
gust
knots
rain 1hr
in
rain 24hr
in
rain mn
in
humidity
%
barometer
mb
20260510134802 72 160 7.0 0.0 0.00 0.00 0.00 53 1014.0
20260510133302 72 160 7.0 0.0 0.00 0.00 0.00 53 1014.0
20260510131802 70 180 7.0 0.0 0.00 0.00 0.00 64 1014.0
20260510130311 70 180 7.0 0.0 0.00 0.00 0.00 64 1014.0
20260510124829 70 190 4.3 0.0 0.00 0.00 0.00 64 1014.0
20260510123302 70 190 4.3 0.0 0.00 0.00 0.00 64 1014.0
20260510121802 68 160 7.8 0.0 0.00 0.00 0.00 69 1015.0
20260510120408 68 160 7.8 0.0 0.00 0.00 0.00 69 1015.0
20260510114803 66 170 8.7 0.0 0.00 0.00 0.00 78 1015.0
20260510113302 66 170 8.7 0.0 0.00 0.00 0.00 78 1015.0
20260510111801 68 200 7.0 0.0 0.00 0.00 0.00 83 1015.0
20260510110302 68 200 7.0 0.0 0.00 0.00 0.00 83 1015.0
20260510104803 68 230 5.2 0.0 0.00 0.00 0.00 69 1016.0
20260510103302 68 230 5.2 0.0 0.00 0.00 0.00 69 1016.0
20260510101802 66 230 5.2 0.0 0.00 0.00 0.00 73 1016.0
20260510100309 66 230 5.2 0.0 0.00 0.00 0.00 73 1016.0
20260510094803 66 230 2.6 0.0 0.00 0.00 0.00 83 1016.0
20260510093302 66 230 2.6 0.0 0.00 0.00 0.00 83 1016.0
20260510091808 64 0.9 0.0 0.00 0.00 0.00 83 1016.0
20260510090302 64 0.9 0.0 0.00 0.00 0.00 83 1016.0
20260510084802 63 1.7 0.0 0.00 0.00 0.00 83 1016.0
20260510083301 63 1.7 0.0 0.00 0.00 0.00 83 1016.0
20260510081802 64 0.9 0.0 0.00 0.00 0.00 83 1015.0
20260510080302 64 0.9 0.0 0.00 0.00 0.00 83 1015.0
20260510074801 63 1.7 0.0 0.00 0.00 0.00 83 1016.0
20260510073311 63 1.7 0.0 0.00 0.00 0.00 83 1016.0
20260510071804 61 1.7 0.0 0.00 0.00 0.00 88 1016.0
20260510070303 61 1.7 0.0 0.00 0.00 0.00 88 1016.0
20260510064803 59 0 0.0 0.0 0.00 0.00 0.00 94 1016.0
20260510063302 59 0 0.0 0.0 0.00 0.00 0.00 94 1016.0
20260510061801 59 0.9 0.0 0.00 0.00 0.00 100 1016.0
20260510060301 59 0.9 0.0 0.00 0.00 0.00 100 1016.0
20260510054802 57 280 0.9 0.0 0.00 0.00 0.00 100 1016.0
20260510053309 57 280 0.9 0.0 0.00 0.00 0.00 100 1016.0
20260510051801 57 280 2.6 0.0 0.00 0.00 0.00 100 1016.0
20260510050302 57 280 2.6 0.0 0.00 0.00 0.00 100 1016.0
20260510044802 57 0 0.0 0.0 0.00 0.00 0.00 100 1015.0
20260510043301 57 0 0.0 0.0 0.00 0.00 0.00 100 1015.0
20260510041802 57 0 0.0 0.0 0.00 0.00 0.00 100 1015.0
20260510040301 57 0 0.0 0.0 0.00 0.00 0.00 100 1015.0
20260510034802 57 250 2.6 0.0 0.00 0.00 0.00 94 1015.0
20260510033307 57 250 2.6 0.0 0.00 0.00 0.00 94 1015.0
20260510031802 55 240 1.7 0.0 0.00 0.00 0.00 100 1015.0
20260510030302 55 240 1.7 0.0 0.00 0.00 0.00 100 1015.0
20260510024802 55 0 0.0 0.0 0.00 0.00 0.00 100 1015.0
20260510023303 55 0 0.0 0.0 0.00 0.00 0.00 100 1015.0
20260510021802 55 0 0.0 0.0 0.00 0.00 0.00 100 1014.0
20260510020302 55 0 0.0 0.0 0.00 0.00 0.00 100 1014.0
20260510014802 55 280 0.9 0.0 0.00 0.00 0.00 100 1015.0
20260510013302 55 280 0.9 0.0 0.00 0.00 0.00 100 1015.0
20260510011802 55 290 2.6 0.0 0.00 0.00 0.00 100 1015.0
20260510010302 55 290 2.6 0.0 0.00 0.00 0.00 100 1015.0
20260510004802 57 10 4.3 0.0 0.00 0.00 0.00 94 1015.0
20260510003302 57 10 4.3 0.0 0.00 0.00 0.00 94 1015.0
20260510001802 57 10 5.2 0.0 0.00 0.00 0.00 94 1015.0
20260510000304 57 10 5.2 0.0 0.00 0.00 0.00 94 1015.0
20260509234802 55 340 5.2 0.0 0.00 0.00 0.00 100 1015.0
20260509233316 55 340 5.2 0.0 0.00 0.00 0.00 100 1015.0
20260509231802 57 330 5.2 0.0 0.00 0.00 0.00 94 1015.0
20260509230302 57 330 5.2 0.0 0.00 0.00 0.00 94 1015.0
20260509224802 57 350 4.3 0.0 0.00 0.00 0.00 94 1015.0
20260509223302 57 350 4.3 0.0 0.00 0.00 0.00 94 1015.0
20260509221802 57 10 5.2 0.0 0.00 0.00 0.00 100 1015.0
20260509220302 57 10 5.2 0.0 0.00 0.00 0.00 100 1015.0
20260509214802 57 10 6.1 0.0 0.00 0.00 0.00 100 1015.0
20260509213302 57 10 6.1 0.0 0.00 0.00 0.00 100 1015.0
20260509211802 59 10 5.2 0.0 0.00 0.00 0.00 94 1015.0
20260509210302 59 10 5.2 0.0 0.00 0.00 0.00 94 1015.0
20260509204815 59 20 5.2 0.0 0.00 0.00 0.00 94 1015.0
20260509203302 59 20 5.2 0.0 0.00 0.00 0.00 94 1015.0
20260509201803 59 360 5.2 0.0 0.00 0.00 0.00 94 1015.0
20260509200302 59 360 5.2 0.0 0.00 0.00 0.00 94 1015.0
20260509194802 59 10 6.1 0.0 0.00 0.00 0.00 94 1015.0
20260509193302 59 10 6.1 0.0 0.00 0.00 0.00 94 1015.0
20260509190302 59 30 6.1 0.0 0.00 0.00 0.00 94 1015.0
20260509184802 59 30 6.1 0.0 0.00 0.00 0.00 94 1015.0
20260509183302 59 30 6.1 0.0 0.00 0.00 0.00 94 1015.0
20260509181803 59 40 5.2 0.0 0.00 0.00 0.00 94 1015.0
20260509180302 59 40 5.2 0.0 0.00 0.00 0.00 94 1015.0
20260509174803 59 40 7.0 0.0 0.00 0.00 0.00 94 1014.0
20260509173303 59 40 7.0 0.0 0.00 0.00 0.00 94 1014.0
20260509171803 61 40 7.8 0.0 0.00 0.00 0.00 88 1014.0
20260509170302 61 40 7.8 0.0 0.00 0.00 0.00 88 1014.0
20260509164801 61 40 7.8 0.0 0.00 0.00 0.00 94 1014.0
20260509163302 61 40 7.8 0.0 0.00 0.00 0.00 94 1014.0
20260509161802 61 20 7.0 0.0 0.00 0.00 0.00 88 1014.0
20260509160302 61 20 7.0 0.0 0.00 0.00 0.00 88 1014.0
20260509154802 61 20 6.1 0.0 0.00 0.00 0.00 88 1014.0
20260509153301 61 20 6.1 0.0 0.00 0.00 0.00 88 1014.0
20260509151802 61 20 7.8 0.0 0.00 0.00 0.00 88 1014.0
20260509150302 61 20 7.8 0.0 0.00 0.00 0.00 88 1014.0
20260509144802 59 30 8.7 0.0 0.00 0.00 0.00 100 1014.0
20260509143301 59 30 8.7 0.0 0.00 0.00 0.00 100 1014.0
20260509140302 59 30 8.7 0.0 0.00 0.00 0.00 94 1014.0